Temp_Advection
nan nan nan nan nan nan nan nan nan nan nan nan nan nan nan nan nan nan nan nan nan nan nan nan nan nan nan nan nan nan nan nan nan nan nan nan nan nan nan nan nan nan nan
nan -1 -1 -1 -1 -1 -1 -0 -0 -0 -0 -1 -1 -1 -1 -0 0 0 -0 -0 -0 -0 0 0 0 0 0 0 0 0 0 0 0 0 0 -0 0 0 0 0 0 0 nan
nan -1 -1 -1 -1 -1 -0 -1 -1 -1 -1 -1 -1 -0 -0 0 -0 -0 -0 -0 -0 0 1 0 0 0 0 0 0 0 0 0 0 0 0 -0 0 0 -0 0 0 0 nan
nan -2 -1 -1 -1 -1 -1 -1 -1 -0 -1 -1 -0 -0 -0 -0 -0 0 0 -0 0 0 0 0 0 0 0 0 0 0 0 0 0 0 0 0 0 -0 -0 -0 0 0 nan
nan -2 -2 -1 -1 -1 -1 -1 -1 -0 -0 -1 -1 -0 -0 -0 0 1 0 -0 0 0 1 1 1 0 0 0 0 0 0 0 0 0 0 0 0 0 0 -0 -0 -0 nan
nan -1 -1 -1 -1 -0 -1 -1 -0 -0 -1 -0 -0 -0 -0 0 0 -0 -0 -0 0 0 0 1 1 0 0 0 0 0 0 0 0 0 0 0 0 0 0 0 0 -0 nan
nan -1 -1 -1 -1 -1 -1 -0 -0 -0 -0 -0 -0 -0 0 0 0 -0 -0 -0 -0 0 1 1 0 1 1 1 1 0 0 0 0 0 0 0 0 0 0 0 0 0 nan
nan -2 -2 -1 -1 -1 -1 -0 -0 -1 -1 -0 -0 1 1 0 0 -1 -0 1 0 1 1 1 1 1 1 1 1 1 0 0 0 0 0 0 0 0 0 0 0 0 nan
nan -1 -1 -2 -1 -1 -1 -0 -1 -1 -1 0 1 1 1 1 -0 -1 2 1 1 1 1 1 1 1 0 1 1 1 0 0 -0 0 1 0 0 0 0 0 0 0 nan
nan 0 0 -1 -1 -1 -1 -0 -0 -0 0 1 1 1 1 1 0 1 1 1 1 1 1 1 1 1 1 1 1 0 -0 0 0 0 0 0 0 0 0 0 0 0 nan
nan 0 -0 0 -0 -0 -0 0 0 0 0 0 0 1 1 0 1 1 0 0 1 1 1 1 0 1 1 1 0 0 1 0 0 0 0 0 0 0 0 0 0 0 nan
nan 0 0 0 0 0 0 0 0 0 0 -0 0 1 0 1 1 0 0 1 1 1 1 0 1 1 0 0 0 1 1 0 0 -0 -0 0 0 0 0 0 0 0 nan
nan 0 0 0 0 0 0 0 1 1 0 0 1 0 0 2 1 1 0 0 1 1 1 1 1 1 0 0 1 1 0 0 -0 0 0 0 0 0 0 0 0 0 nan
nan 0 -0 0 0 1 1 1 1 1 0 0 1 1 3 3 1 0 0 0 1 1 1 0 1 1 1 0 1 0 0 0 0 0 0 0 0 0 0 0 0 0 nan
nan 0 0 0 0 1 1 1 1 1 1 2 4 3 3 1 1 0 1 1 1 1 1 1 1 0 0 0 0 0 0 0 0 0 0 0 0 0 0 0 0 0 nan
nan -0 -0 0 1 1 1 1 1 2 3 3 2 1 1 1 1 1 1 1 1 1 1 0 0 0 0 0 0 0 0 0 0 0 0 0 0 0 0 -0 0 0 nan
nan 0 0 0 1 1 1 2 3 3 2 1 1 1 0 1 1 1 1 1 1 1 0 0 0 0 0 0 0 0 0 0 0 0 0 0 0 -0 -0 -0 -0 0 nan
nan 0 0 1 1 1 2 2 2 1 2 1 0 0 1 1 1 1 1 1 1 1 0 0 0 1 0 0 0 0 0 0 0 1 1 0 -0 0 0 -0 -0 -0 nan
nan 1 1 1 2 1 1 1 1 1 1 1 1 1 1 1 1 1 1 1 0 0 0 0 0 0 0 0 0 0 0 0 0 0 1 1 0 0 0 0 -0 -1 nan
nan 1 1 1 1 1 1 1 1 1 1 1 1 1 1 1 1 1 0 0 0 0 0 0 0 0 0 0 -0 -0 0 0 -0 0 1 1 0 0 1 1 -0 -1 nan
nan 1 1 0 0 1 1 1 1 1 0 1 1 1 1 0 0 0 0 0 0 0 0 0 0 0 1 0 -0 0 0 0 -0 -0 -0 0 0 1 1 0 0 -0 nan
nan 0 0 0 -0 0 0 0 0 0 0 0 0 0 1 0 0 0 0 0 1 1 0 0 1 1 1 0 -1 -0 0 -0 -0 -1 -0 -0 -0 -0 0 0 0 0 nan
nan 0 0 0 0 -0 -0 -0 0 0 0 0 1 1 1 1 0 0 0 0 0 0 0 0 1 0 1 0 0 -0 -0 -1 -0 -0 -0 -0 -0 -0 -0 -1 -1 -0 nan
nan 0 0 0 0 0 0 1 0 0 0 0 1 1 1 1 1 0 0 0 0 0 0 0 0 0 0 0 0 0 0 -0 -0 -0 -0 -0 -0 -0 -1 -1 -1 -1 nan
nan 1 1 1 1 1 1 0 0 0 1 1 1 1 0 0 0 0 0 0 0 0 0 0 0 0 0 0 0 -0 -0 -0 -0 -1 -1 -0 -0 -1 -1 -1 -1 -2 nan
nan nan nan nan nan nan nan nan nan nan nan nan nan nan nan nan nan nan nan nan nan nan nan nan nan nan nan nan nan nan nan nan nan nan nan nan nan nan nan nan nan nan nan
Wind_Speed
17 22 22 18 20 27 37 39 37 32 27 27 24 23 23 22 23 23 21 21 18 19 19 19 19 18 15 16 18 16 14 12 9 6 3 9 16 17 12 10 10 10 12
22 22 22 23 23 40 33 29 24 24 24 23 23 21 21 20 24 22 23 20 22 20 22 20 19 20 20 20 18 16 10 8 11 6 6 4 7 14 11 10 9 12 14
27 27 25 27 29 30 26 22 19 19 22 20 19 19 18 18 22 21 21 24 22 23 22 21 20 20 21 22 19 17 14 7 9 12 5 3 5 10 5 5 10 13 17
31 31 30 33 35 35 33 27 23 22 20 23 23 24 25 25 22 25 23 23 24 22 23 20 23 22 23 22 19 17 15 18 9 7 9 9 13 9 8 12 13 13 16
33 35 35 35 38 34 37 32 28 27 20 27 25 25 27 26 22 23 26 28 22 25 27 27 26 26 23 19 19 19 21 18 14 12 13 10 12 12 15 20 17 15 15
34 35 35 34 36 35 35 30 33 30 26 24 25 29 28 23 24 26 27 27 23 26 25 28 25 26 24 23 24 25 23 17 15 15 11 14 13 11 16 19 20 18 18
38 39 39 39 39 40 40 37 36 33 31 30 32 27 31 31 28 31 31 27 23 26 28 28 29 28 25 28 29 26 19 14 14 14 13 12 13 14 18 20 21 21 20
33 38 42 44 42 43 43 42 40 36 34 34 34 32 34 32 32 33 32 26 27 28 27 28 32 28 28 31 29 21 14 13 12 13 15 16 16 15 16 19 19 23 23
20 32 33 43 45 44 44 46 42 39 36 35 36 34 34 34 35 34 32 25 25 23 24 28 31 29 31 30 25 17 9 12 17 15 16 17 15 15 18 20 20 21 26
6 14 32 36 41 43 44 45 43 40 37 37 36 37 33 34 35 31 26 24 20 19 25 29 31 32 30 30 28 12 9 16 10 14 15 15 17 18 20 21 22 22 25
6 8 13 21 35 37 38 40 40 38 35 36 36 37 36 32 33 30 27 26 24 23 26 29 31 30 29 24 25 19 21 8 15 17 18 20 21 23 24 24 25 26 26
3 6 7 10 15 27 34 36 38 37 35 34 34 37 33 33 32 34 33 30 27 27 33 31 29 28 20 15 18 20 18 14 12 18 19 20 20 22 23 25 27 28 29
10 10 10 10 14 18 24 30 32 30 30 31 34 37 34 30 33 30 25 28 27 28 29 25 23 21 18 14 17 17 12 12 15 18 20 21 23 24 25 26 28 29 30
12 12 13 12 12 16 20 20 25 25 26 29 34 36 31 30 31 27 26 21 25 25 23 11 13 18 21 13 15 10 13 18 19 17 19 22 25 27 27 28 29 29 30
8 7 10 15 17 14 15 18 19 24 28 32 36 31 29 25 28 26 23 23 22 21 16 9 15 18 16 11 10 16 20 20 19 21 23 23 21 24 27 30 34 35 37
7 4 2 8 17 18 16 20 24 27 31 28 25 23 21 25 25 24 24 19 23 20 11 12 15 13 8 11 18 21 22 22 23 23 22 23 24 27 27 29 32 33 33
5 4 5 7 15 20 23 26 29 28 26 21 18 17 21 23 23 22 21 23 22 16 14 13 12 12 15 17 20 20 20 21 21 22 23 24 25 25 29 31 32 33 33
5 6 7 9 15 20 23 24 24 22 23 18 16 17 21 24 25 23 22 20 18 16 13 10 14 17 14 13 17 20 20 22 23 23 23 26 29 30 30 35 39 42 43
9 10 12 14 18 19 18 18 20 19 16 17 17 20 22 27 24 21 19 17 15 11 14 14 11 10 13 15 17 20 23 25 27 29 30 29 29 30 31 35 38 40 41
12 14 17 18 16 15 15 16 19 19 18 18 20 23 25 25 20 18 18 12 12 12 11 12 15 15 17 19 21 24 26 28 29 27 27 26 27 28 26 27 31 37 38
14 16 18 15 12 14 16 16 18 19 18 21 22 22 19 17 16 13 13 14 13 15 18 20 17 16 17 21 23 23 24 24 24 24 26 27 27 27 27 28 31 35 37
18 18 18 19 19 19 18 20 20 21 23 21 21 21 19 16 15 16 15 14 14 16 16 15 14 13 14 17 18 22 23 22 24 26 27 27 26 27 27 27 28 28 28
18 17 18 19 17 16 17 21 22 23 23 23 20 20 20 16 15 13 12 12 11 11 13 13 11 10 14 12 16 21 23 23 24 24 25 25 25 24 23 23 24 25 27
19 19 21 20 19 18 19 21 22 22 21 20 19 17 16 14 14 13 13 12 13 12 12 10 12 14 15 17 22 22 23 23 23 25 25 24 22 22 26 28 27 24 25
20 20 20 22 20 20 18 17 19 19 20 19 17 17 17 14 14 13 10 9 9 9 11 13 15 16 17 20 19 21 23 23 24 26 25 21 20 29 27 25 22 23 22
20 21 21 21 20 19 17 15 14 16 16 16 15 13 12 10 7 6 6 7 8 10 12 13 14 17 19 19 19 22 22 22 22 22 19 18 22 26 26 24 24 24 24
Wind_Direction
146 148 149 152 161 156 150 147 152 156 165 175 184 195 199 206 211 211 210 211 208 205 192 205 218 197 199 210 198 205 201 206 237 276 312 275 276 266 266 269 265 244 250
159 160 167 160 159 157 159 166 173 179 182 184 187 193 204 216 216 208 207 210 206 207 199 203 220 191 201 214 214 206 199 191 248 229 269 301 226 249 286 288 284 259 265
170 173 178 179 178 179 180 185 194 194 194 190 182 200 205 221 217 209 215 216 214 215 215 199 222 203 208 224 217 200 197 213 245 275 270 258 251 291 313 285 261 253 270
175 179 183 179 187 193 198 191 198 210 199 186 198 199 199 209 214 212 218 225 223 214 204 201 223 216 210 227 222 213 212 207 195 224 278 276 267 277 275 255 251 293 300
182 186 191 193 192 203 199 202 206 213 214 193 194 201 209 220 226 217 221 227 225 217 216 220 220 220 216 218 226 216 216 226 231 260 258 236 254 272 275 281 291 280 274
187 190 193 193 197 202 210 205 206 216 219 211 208 200 212 217 210 214 223 232 232 222 218 214 216 220 222 208 219 219 228 231 258 267 248 244 255 261 272 279 282 283 272
187 189 192 196 199 204 206 208 211 208 220 223 216 221 205 212 219 229 229 231 232 226 218 220 220 224 220 213 223 225 232 246 264 252 262 248 249 261 268 273 279 283 281
193 192 194 197 202 206 210 213 212 214 212 223 224 229 216 222 222 233 240 239 237 235 235 232 221 222 213 218 223 224 228 245 249 262 264 261 265 256 264 269 276 284 284
212 200 201 200 201 202 208 212 210 213 214 218 226 231 223 217 222 233 236 242 241 238 240 228 220 214 215 224 224 216 228 257 294 295 270 275 277 268 261 261 265 274 286
277 236 211 208 202 205 206 210 212 212 217 217 220 230 229 216 226 234 241 241 244 237 221 220 214 212 219 224 213 231 276 286 271 264 272 279 278 271 264 267 271 273 274
199 242 239 222 208 205 200 207 212 211 217 219 219 222 226 224 220 227 229 227 230 228 217 224 206 209 219 217 221 247 267 231 239 260 263 266 270 271 266 268 267 269 272
216 197 220 223 208 204 202 204 209 211 217 222 216 220 226 224 218 218 223 224 236 227 220 208 215 216 227 222 242 251 226 246 249 255 268 271 269 269 274 275 275 275 275
221 203 187 206 210 214 202 202 215 221 214 222 214 217 230 224 218 218 222 224 225 219 211 214 217 213 215 230 254 242 246 254 265 259 259 265 268 271 273 275 276 277 278
203 225 192 199 210 210 213 208 217 214 213 221 218 223 234 217 216 220 216 222 215 215 205 188 201 208 223 245 233 230 246 253 257 260 263 265 268 273 277 280 278 278 279
197 230 237 203 194 199 202 202 213 212 217 219 220 222 214 215 210 210 211 212 212 206 196 213 203 213 230 219 215 231 244 245 245 253 262 268 273 277 278 281 284 287 286
259 346 327 242 190 177 178 194 202 211 217 208 199 209 205 203 193 203 197 200 194 193 210 200 203 216 200 224 239 247 253 254 266 273 276 277 275 280 285 285 284 285 289
166 203 249 256 166 172 190 202 205 209 208 213 211 213 205 202 196 188 186 177 186 202 191 192 193 199 230 240 246 254 260 267 274 282 286 288 290 289 286 288 286 282 283
209 198 195 184 180 191 203 194 201 207 218 230 221 201 197 194 180 173 176 182 186 187 187 191 210 230 238 245 255 263 272 279 283 287 286 282 281 278 278 278 279 280 282
189 183 173 182 187 193 199 219 218 228 215 200 201 195 187 177 175 172 175 175 172 185 200 213 215 218 234 246 257 267 275 282 285 288 288 286 285 287 290 288 288 289 290
165 162 161 186 190 193 206 203 192 192 196 194 179 170 170 178 178 176 169 184 183 198 189 196 207 212 235 245 256 269 277 282 287 290 294 297 298 300 299 296 299 298 299
165 162 162 166 176 170 172 176 177 175 164 160 167 172 166 154 163 172 177 183 182 195 206 217 225 238 249 263 272 280 283 290 296 299 303 305 305 304 301 298 295 299 303
166 165 161 159 161 164 164 157 154 158 168 169 149 150 167 166 173 179 184 185 200 216 230 242 252 258 261 271 284 288 293 303 306 306 306 307 310 308 304 301 303 307 306
167 166 164 159 160 160 156 157 161 159 157 159 160 164 173 171 180 173 185 181 202 223 243 259 266 256 264 283 278 281 293 299 301 304 308 310 311 309 309 312 313 311 309
172 167 163 158 156 157 164 166 160 161 161 160 166 170 170 167 169 186 200 203 211 228 244 259 261 258 264 260 271 286 294 302 308 309 312 316 316 310 300 298 301 307 309
168 165 159 156 153 154 152 153 158 162 165 165 165 171 171 180 175 191 216 230 245 252 249 254 264 271 274 280 291 296 302 309 311 312 316 319 311 308 309 311 315 302 303
164 158 154 146 143 143 142 146 157 172 165 156 162 178 180 182 192 222 234 264 272 277 279 277 277 283 284 287 292 297 302 309 309 308 317 318 306 311 315 316 313 315 310
Height
1483 1485 1487 1491 1493 1497 1502 1506 1509 1513 1517 1520 1523 1528 1531 1534 1538 1541 1544 1545 1547 1549 1552 1554 1555 1558 1560 1562 1563 1565 1567 1566 1567 1568 1569 1567 1567 1567 1567 1567 1566 1566 1565
1485 1486 1491 1494 1495 1496 1501 1506 1509 1511 1514 1518 1523 1527 1529 1531 1535 1538 1540 1543 1544 1546 1550 1552 1553 1555 1558 1558 1560 1562 1565 1564 1564 1566 1568 1566 1566 1566 1564 1563 1563 1563 1562
1480 1486 1490 1494 1497 1499 1500 1504 1507 1511 1513 1517 1521 1525 1527 1529 1531 1535 1537 1537 1541 1544 1547 1549 1550 1552 1554 1555 1558 1560 1561 1562 1561 1563 1565 1565 1564 1562 1562 1561 1560 1560 1558
1475 1480 1484 1488 1493 1495 1498 1502 1506 1508 1510 1513 1517 1520 1523 1524 1526 1530 1532 1534 1537 1540 1544 1547 1549 1550 1550 1552 1553 1555 1557 1558 1559 1559 1560 1560 1560 1559 1558 1558 1557 1557 1554
1467 1473 1477 1481 1486 1490 1493 1498 1502 1505 1507 1510 1513 1517 1519 1521 1523 1526 1528 1530 1532 1535 1538 1539 1543 1543 1546 1548 1549 1551 1552 1554 1556 1556 1557 1556 1556 1555 1555 1553 1552 1552 1552
1460 1467 1474 1479 1483 1487 1489 1493 1497 1499 1502 1505 1509 1512 1515 1518 1520 1520 1522 1524 1527 1529 1532 1536 1538 1541 1542 1544 1546 1546 1549 1551 1552 1552 1551 1553 1554 1553 1553 1551 1549 1547 1546
1450 1457 1464 1471 1475 1479 1484 1488 1491 1494 1497 1499 1502 1506 1510 1514 1515 1514 1515 1519 1521 1523 1527 1531 1532 1534 1537 1539 1540 1543 1545 1547 1548 1548 1547 1548 1547 1548 1548 1548 1545 1543 1542
1443 1448 1453 1459 1466 1471 1474 1480 1484 1488 1493 1493 1496 1501 1505 1508 1509 1508 1510 1514 1515 1519 1523 1525 1527 1529 1531 1533 1535 1539 1540 1541 1543 1544 1543 1543 1542 1542 1543 1543 1542 1539 1537
1438 1441 1446 1450 1455 1461 1466 1470 1475 1481 1487 1489 1490 1494 1498 1501 1502 1503 1505 1509 1512 1515 1518 1519 1521 1523 1523 1527 1531 1534 1536 1537 1537 1536 1539 1539 1539 1539 1539 1538 1537 1535 1530
1437 1438 1440 1443 1447 1452 1457 1464 1470 1476 1480 1484 1485 1486 1489 1495 1496 1498 1502 1504 1508 1511 1513 1514 1513 1515 1518 1523 1526 1528 1528 1530 1532 1535 1535 1535 1536 1536 1535 1533 1532 1531 1528
1435 1437 1437 1439 1442 1446 1454 1456 1462 1468 1474 1477 1479 1481 1483 1488 1491 1494 1496 1499 1502 1505 1508 1509 1506 1510 1514 1518 1522 1523 1526 1528 1528 1530 1530 1530 1531 1531 1530 1528 1527 1525 1523
1433 1435 1436 1437 1440 1443 1447 1451 1456 1461 1466 1472 1474 1474 1479 1482 1485 1486 1490 1492 1496 1497 1500 1500 1507 1511 1514 1517 1518 1519 1518 1521 1523 1524 1525 1525 1526 1526 1524 1522 1520 1518 1517
1430 1432 1434 1437 1439 1442 1444 1447 1449 1453 1461 1467 1468 1467 1470 1474 1477 1482 1486 1488 1490 1493 1497 1500 1502 1506 1509 1511 1514 1515 1516 1517 1519 1519 1520 1520 1520 1519 1518 1516 1514 1512 1511
1425 1428 1430 1434 1438 1440 1442 1446 1447 1451 1457 1460 1460 1462 1464 1468 1472 1476 1480 1485 1488 1491 1495 1497 1501 1503 1504 1507 1509 1511 1513 1515 1514 1514 1514 1514 1514 1512 1511 1509 1507 1505 1503
1422 1425 1427 1429 1432 1437 1441 1445 1446 1448 1450 1453 1454 1455 1459 1463 1468 1473 1477 1481 1486 1490 1493 1495 1497 1500 1502 1503 1505 1508 1508 1508 1508 1508 1508 1508 1508 1506 1504 1502 1499 1498 1494
1421 1424 1425 1428 1429 1433 1439 1441 1442 1444 1444 1447 1451 1455 1457 1460 1464 1471 1473 1477 1481 1486 1489 1491 1494 1496 1497 1500 1501 1502 1502 1503 1503 1502 1502 1501 1500 1498 1497 1495 1492 1490 1486
1418 1422 1426 1429 1428 1429 1433 1436 1436 1438 1441 1444 1447 1451 1456 1459 1462 1463 1470 1475 1480 1484 1486 1488 1491 1494 1495 1495 1495 1496 1496 1496 1496 1495 1494 1493 1493 1492 1489 1486 1482 1478 1476
1419 1421 1424 1425 1426 1426 1428 1432 1434 1437 1440 1444 1448 1450 1453 1458 1461 1464 1469 1473 1477 1481 1484 1487 1490 1490 1491 1491 1491 1491 1490 1490 1489 1488 1487 1485 1484 1483 1480 1475 1470 1467 1466
1417 1420 1422 1421 1423 1424 1427 1431 1434 1437 1440 1443 1446 1450 1453 1457 1461 1464 1469 1474 1478 1481 1483 1484 1486 1487 1485 1485 1486 1485 1484 1482 1481 1480 1479 1477 1474 1472 1470 1466 1461 1456 1453
1416 1418 1420 1419 1422 1423 1427 1430 1432 1436 1440 1442 1446 1450 1453 1457 1461 1466 1470 1473 1476 1478 1479 1481 1480 1480 1478 1478 1478 1478 1476 1475 1473 1472 1470 1469 1467 1463 1460 1457 1453 1448 1444
1415 1418 1419 1419 1420 1423 1426 1429 1433 1436 1440 1444 1447 1450 1456 1459 1463 1467 1470 1472 1473 1474 1474 1475 1476 1476 1476 1472 1472 1472 1469 1467 1466 1464 1462 1460 1458 1455 1451 1449 1446 1442 1437
1414 1417 1420 1421 1423 1425 1428 1431 1435 1439 1441 1444 1448 1452 1455 1459 1462 1464 1466 1468 1469 1470 1471 1472 1472 1472 1471 1467 1467 1465 1464 1462 1459 1458 1456 1453 1450 1447 1444 1441 1438 1434 1430
1414 1417 1420 1421 1424 1426 1430 1433 1435 1437 1442 1446 1449 1452 1454 1457 1459 1461 1462 1465 1466 1466 1466 1467 1468 1467 1466 1464 1461 1460 1460 1458 1455 1453 1449 1446 1444 1440 1437 1434 1430 1427 1423
1414 1416 1418 1421 1424 1427 1430 1432 1435 1438 1441 1445 1447 1450 1453 1454 1457 1457 1458 1460 1461 1461 1462 1463 1464 1462 1461 1459 1457 1456 1454 1451 1449 1446 1443 1440 1437 1434 1431 1427 1424 1421 1418
1412 1415 1418 1421 1424 1427 1430 1434 1437 1440 1441 1443 1446 1448 1450 1451 1452 1452 1453 1455 1457 1458 1459 1458 1459 1458 1457 1454 1453 1450 1448 1445 1443 1439 1437 1435 1432 1428 1424 1421 1419 1416 1413
1412 1414 1419 1423 1427 1430 1433 1436 1439 1440 1441 1443 1444 1445 1447 1449 1450 1451 1452 1453 1454 1454 1454 1453 1453 1452 1452 1450 1448 1445 1443 1440 1437 1434 1432 1431 1428 1425 1421 1418 1414 1412 1408